When you browse on this site, cookies collect data to enhance your experience and personalize the content and advertising you see.
Visit our Privacy Policy to learn more. By continuing to use the site, you agree to this use of cookies and data.
  • In Romania
  • List of Countries
  • For 7 days
  • Water Temperature
  • Satellite Maps
  • Weather Map
  • Weather Widgets
  • user-avatar
    Login

    Hourly Weather Córdoba

    Today, 16 June, Sunday

    Time Temperature Precipitation Wind Pressure Humidity
    00:00 +7°C° 0.2 mm 5 mps 729 mmHg 79%
    01:00 +7°C° 0.2 mm 5 mps 729 mmHg 79%
    02:00 +7°C° 0 mm 5 mps 729 mmHg 78%
    03:00 +7°C° 0.1 mm 4 mps 728 mmHg 78%
    04:00 +7°C° 0.1 mm 4 mps 728 mmHg 79%
    05:00 +8°C° 0.1 mm 4 mps 728 mmHg 79%
    06:00 +8°C° 0 mm 4 mps 729 mmHg 78%
    07:00 +8°C° 0 mm 4 mps 729 mmHg 78%
    08:00 +9°C° 0 mm 3 mps 730 mmHg 77%
    09:00 +10°C° 0 mm 3 mps 730 mmHg 75%
    10:00 +10°C° 0 mm 3 mps 730 mmHg 73%
    11:00 +11°C° 0 mm 3 mps 730 mmHg 71%
    12:00 +11°C° 0 mm 3 mps 730 mmHg 71%
    13:00 +11°C° 0 mm 3 mps 729 mmHg 71%
    14:00 +11°C° 0 mm 3 mps 729 mmHg 71%
    15:00 +11°C° 0 mm 3 mps 729 mmHg 73%
    16:00 +11°C° 0 mm 3 mps 728 mmHg 74%
    17:00 +11°C° 0 mm 3 mps 728 mmHg 76%
    18:00 +11°C° 0 mm 3 mps 729 mmHg 78%
    19:00 +12°C° 0 mm 2 mps 729 mmHg 80%
    20:00 +10°C° 0 mm 2 mps 729 mmHg 81%
    21:00 +10°C° 0 mm 2 mps 729 mmHg 82%
    22:00 +10°C° 0 mm 2 mps 729 mmHg 82%
    23:00 +11°C° 0 mm 1 mps 729 mmHg 83%

    Tomorrow, 17 June, Monday

    Time Temperature Precipitation Wind Pressure Humidity
    00:00 +11°C° 0.1 mm 1 mps 729 mmHg 83%
    01:00 +11°C° 0.1 mm 1 mps 728 mmHg 84%
    02:00 +11°C° 0.1 mm 1 mps 728 mmHg 84%
    03:00 +11°C° 0 mm 1 mps 727 mmHg 85%
    04:00 +11°C° 0 mm 1 mps 727 mmHg 85%
    05:00 +11°C° 0 mm 1 mps 727 mmHg 86%
    06:00 +10°C° 0 mm 0 mps 727 mmHg 85%
    07:00 +10°C° 0 mm 0 mps 727 mmHg 85%
    08:00 +10°C° 0 mm 0 mps 727 mmHg 85%
    09:00 +11°C° 0 mm 0 mps 727 mmHg 82%
    10:00 +12°C° 0 mm 1 mps 726 mmHg 79%
    11:00 +13°C° 0 mm 1 mps 726 mmHg 77%
    12:00 +13°C° 0 mm 1 mps 725 mmHg 77%
    13:00 +13°C° 0 mm 1 mps 725 mmHg 77%
    14:00 +13°C° 0 mm 2 mps 724 mmHg 77%
    15:00 +13°C° 0 mm 2 mps 724 mmHg 79%
    16:00 +13°C° 0 mm 2 mps 723 mmHg 82%
    17:00 +12°C° 0 mm 2 mps 723 mmHg 84%
    18:00 +12°C° 0.1 mm 1 mps 723 mmHg 87%
    19:00 +12°C° 0.1 mm 1 mps 723 mmHg 89%
    20:00 +12°C° 0.1 mm 1 mps 723 mmHg 91%
    21:00 +12°C° 0.2 mm 1 mps 723 mmHg 91%
    22:00 +12°C° 0.2 mm 2 mps 723 mmHg 91%
    23:00 +12°C° 0.2 mm 2 mps 723 mmHg 91%

    Day after tomorrow, 18 June, Tuesday

    Time Temperature Precipitation Wind Pressure Humidity
    00:00 +12°C° 0 mm 2 mps 723 mmHg 90%
    01:00 +10°C° 0 mm 2 mps 723 mmHg 88%
    02:00 +10°C° 0 mm 2 mps 722 mmHg 87%
    03:00 +10°C° 0 mm 2 mps 722 mmHg 86%
    04:00 +9°C° 0 mm 2 mps 722 mmHg 84%
    05:00 +10°C° 0 mm 1 mps 722 mmHg 83%
    06:00 +9°C° 0 mm 2 mps 723 mmHg 76%
    07:00 +9°C° 0 mm 3 mps 724 mmHg 68%
    08:00 +10°C° 0 mm 3 mps 725 mmHg 61%
    09:00 +12°C° 0 mm 5 mps 725 mmHg 48%
    10:00 +14°C° 0 mm 6 mps 726 mmHg 35%
    11:00 +17°C° 0 mm 8 mps 726 mmHg 21%
    12:00 +17°C° 0 mm 7 mps 726 mmHg 19%
    13:00 +18°C° 0 mm 7 mps 725 mmHg 17%
    14:00 +20°C° 0 mm 6 mps 725 mmHg 16%
    15:00 +19°C° 0 mm 4 mps 725 mmHg 18%
    16:00 +18°C° 0 mm 3 mps 725 mmHg 21%
    17:00 +16°C° 0 mm 1 mps 725 mmHg 24%
    18:00 +15°C° 0 mm 1 mps 725 mmHg 27%
    19:00 +14°C° 0 mm 2 mps 726 mmHg 29%
    20:00 +12°C° 0 mm 2 mps 726 mmHg 32%
    21:00 +12°C° 0 mm 2 mps 726 mmHg 31%
    22:00 +12°C° 0 mm 2 mps 727 mmHg 30%
    23:00 +10°C° 0 mm 2 mps 727 mmHg 30%

    19 June, Wednesday

    Time Temperature Precipitation Wind Pressure Humidity
    00:00 +10°C° 0 mm 2 mps 727 mmHg 29%
    01:00 +11°C° 0 mm 1 mps 727 mmHg 29%
    02:00 +10°C° 0 mm 1 mps 727 mmHg 29%
    03:00 +10°C° 0 mm 1 mps 727 mmHg 27%
    04:00 +9°C° 0 mm 2 mps 727 mmHg 26%
    05:00 +9°C° 0 mm 2 mps 727 mmHg 24%
    06:00 +9°C° 0 mm 2 mps 727 mmHg 23%
    07:00 +9°C° 0 mm 2 mps 727 mmHg 22%
    08:00 +10°C° 0 mm 2 mps 728 mmHg 21%
    09:00 +13°C° 0 mm 1 mps 728 mmHg 19%
    10:00 +16°C° 0 mm 1 mps 729 mmHg 16%
    11:00 +20°C° 0 mm 1 mps 729 mmHg 14%
    12:00 +20°C° 0 mm 1 mps 728 mmHg 14%
    13:00 +20°C° 0 mm 2 mps 728 mmHg 15%
    14:00 +21°C° 0 mm 3 mps 727 mmHg 15%
    15:00 +19°C° 0 mm 2 mps 727 mmHg 20%
    16:00 +18°C° 0 mm 2 mps 727 mmHg 26%
    17:00 +16°C° 0 mm 2 mps 727 mmHg 31%
    18:00 +15°C° 0 mm 2 mps 727 mmHg 35%
    19:00 +14°C° 0 mm 2 mps 727 mmHg 40%
    20:00 +12°C° 0 mm 1 mps 727 mmHg 44%
    21:00 +12°C° 0 mm 1 mps 727 mmHg 45%
    22:00 +12°C° 0 mm 2 mps 727 mmHg 45%
    23:00 +10°C° 0 mm 2 mps 727 mmHg 45%

    20 June, Thursday

    Time Temperature Precipitation Wind Pressure Humidity
    00:00 +10°C° 0 mm 2 mps 727 mmHg 43%
    01:00 +10°C° 0 mm 2 mps 726 mmHg 42%
    02:00 +10°C° 0 mm 2 mps 726 mmHg 41%
    03:00 +10°C° 0 mm 2 mps 726 mmHg 42%
    04:00 +9°C° 0 mm 2 mps 726 mmHg 43%
    05:00 +9°C° 0 mm 2 mps 726 mmHg 44%
    06:00 +9°C° 0 mm 2 mps 726 mmHg 42%
    07:00 +9°C° 0 mm 2 mps 726 mmHg 41%
    08:00 +10°C° 0 mm 2 mps 726 mmHg 39%
    09:00 +12°C° 0 mm 3 mps 727 mmHg 35%
    10:00 +15°C° 0 mm 4 mps 727 mmHg 32%
    11:00 +17°C° 0 mm 5 mps 727 mmHg 28%
    12:00 +19°C° 0 mm 6 mps 726 mmHg 29%
    13:00 +19°C° 0 mm 6 mps 726 mmHg 30%
    14:00 +20°C° 0 mm 7 mps 725 mmHg 31%
    15:00 +19°C° 0 mm 6 mps 725 mmHg 37%
    16:00 +17°C° 0 mm 6 mps 724 mmHg 42%
    17:00 +16°C° 0 mm 5 mps 724 mmHg 48%
    18:00 +15°C° 0 mm 5 mps 724 mmHg 52%
    19:00 +14°C° 0 mm 5 mps 725 mmHg 55%
    20:00 +13°C° 0 mm 5 mps 725 mmHg 58%
    21:00 +13°C° 0 mm 5 mps 725 mmHg 59%
    22:00 +12°C° 0 mm 5 mps 725 mmHg 60%
    23:00 +12°C° 0 mm 5 mps 725 mmHg 60%

    21 June, Friday

    Time Temperature Precipitation Wind Pressure Humidity
    00:00 +12°C° 0 mm 5 mps 724 mmHg 62%
    01:00 +12°C° 0 mm 5 mps 724 mmHg 64%
    02:00 +12°C° 0 mm 4 mps 724 mmHg 66%
    03:00 +12°C° 0 mm 4 mps 724 mmHg 68%
    04:00 +11°C° 0 mm 4 mps 723 mmHg 70%
    05:00 +11°C° 0 mm 3 mps 723 mmHg 72%
    06:00 +11°C° 0 mm 3 mps 724 mmHg 73%
    07:00 +11°C° 0 mm 3 mps 724 mmHg 74%
    08:00 +12°C° 0 mm 2 mps 724 mmHg 75%
    09:00 +13°C° 0 mm 3 mps 725 mmHg 69%
    10:00 +16°C° 0 mm 3 mps 725 mmHg 64%
    11:00 +18°C° 0 mm 3 mps 725 mmHg 59%
    12:00 +18°C° 0 mm 3 mps 725 mmHg 59%
    13:00 +19°C° 0 mm 3 mps 724 mmHg 59%
    14:00 +19°C° 0 mm 3 mps 724 mmHg 58%
    15:00 +18°C° 0 mm 2 mps 724 mmHg 62%
    16:00 +17°C° 0 mm 2 mps 724 mmHg 65%
    17:00 +18°C° 0 mm 1 mps 724 mmHg 69%
    18:00 +18°C° 0 mm 1 mps 725 mmHg 70%
    19:00 +16°C° 0 mm 1 mps 725 mmHg 71%
    20:00 +16°C° 0 mm 1 mps 726 mmHg 72%
    21:00 +16°C° 0 mm 1 mps 726 mmHg 72%
    22:00 +16°C° 0 mm 1 mps 726 mmHg 72%
    23:00 +16°C° 0 mm 1 mps 726 mmHg 73%
    Show more